Time,TemperatureF,DewpointF,PressureIn,WindDirection,WindDirectionDegrees,WindSpeedMPH,WindSpeedGustMPH,Humidity,HourlyPrecipIn,Conditions,Clouds,dailyrainin,SoftwareType,DateUTC
2013-02-12 00:03:00,20.5,17.0,28.93,South,180,1.2,1.2,86,0.00,CLR,,0.00,WeatherDisplay:10.37,2013-02-12 06:03:00,
2013-02-12 00:08:00,19.4,16.2,28.92,South,180,1.6,1.6,87,0.00,CLR,,0.00,WeatherDisplay:10.37,2013-02-12 06:08:00,
2013-02-12 00:13:00,19.0,16.1,28.93,SE,135,1.2,0.0,88,0.00,CLR,,0.00,WeatherDisplay:10.37,2013-02-12 06:13:00,
2013-02-12 00:23:00,18.7,15.7,28.93,SE,135,1.2,0.0,88,0.00,CLR,,0.00,WeatherDisplay:10.37,2013-02-12 06:23:00,
2013-02-12 00:29:00,18.3,15.6,28.93,SE,135,1.2,0.0,89,0.00,CLR,,0.00,WeatherDisplay:10.37,2013-02-12 06:29:00,
2013-02-12 00:34:00,18.3,15.6,28.93,NE,45,1.2,0.0,89,0.00,CLR,,0.00,WeatherDisplay:10.37,2013-02-12 06:34:00,
2013-02-12 00:39:00,18.5,16.1,28.93,NE,45,1.2,0.0,90,0.00,CLR,,0.00,WeatherDisplay:10.37,2013-02-12 06:39:00,
2013-02-12 00:44:00,18.3,15.6,28.93,NE,45,0.0,0.0,89,0.00,CLR,,0.00,WeatherDisplay:10.37,2013-02-12 06:44:00,
2013-02-12 00:50:00,18.1,15.7,28.93,SW,225,1.2,0.0,90,0.00,CLR,,0.00,WeatherDisplay:10.37,2013-02-12 06:50:00,
2013-02-12 00:55:00,18.1,16.0,28.92,South,180,2.3,2.3,91,0.00,CLR,,0.00,WeatherDisplay:10.37,2013-02-12 06:55:00,
2013-02-12 01:00:00,18.3,16.1,28.92,South,180,2.3,2.3,91,0.00,CLR,,0.00,WeatherDisplay:10.37,2013-02-12 07:00:00,
2013-02-12 01:05:00,18.3,16.1,28.92,South,180,2.3,2.3,91,0.00,CLR,,0.00,WeatherDisplay:10.37,2013-02-12 07:05:00,
2013-02-12 01:10:00,18.3,16.4,28.92,East,90,1.2,0.0,92,0.00,CLR,,0.00,WeatherDisplay:10.37,2013-02-12 07:10:00,
2013-02-12 01:16:00,18.3,16.4,28.92,East,90,1.2,0.0,92,0.00,CLR,,0.00,WeatherDisplay:10.37,2013-02-12 07:16:00,
2013-02-12 01:21:00,18.3,16.4,28.92,South,180,3.1,3.1,92,0.00,CLR,,0.00,WeatherDisplay:10.37,2013-02-12 07:21:00,
2013-02-12 01:26:00,18.3,16.6,28.92,South,180,3.5,3.5,93,0.00,CLR,,0.00,WeatherDisplay:10.37,2013-02-12 07:26:00,
2013-02-12 01:32:00,18.5,17.1,28.92,SE,135,3.5,3.5,94,0.00,CLR,,0.00,WeatherDisplay:10.37,2013-02-12 07:32:00,
2013-02-12 01:37:00,19.0,17.6,28.92,SE,135,5.8,5.8,94,0.00,CLR,,0.00,WeatherDisplay:10.37,2013-02-12 07:37:00,
2013-02-12 01:42:00,18.9,17.4,28.92,South,180,5.8,5.8,94,0.00,CLR,,0.00,WeatherDisplay:10.37,2013-02-12 07:42:00,
2013-02-12 01:47:00,18.7,17.2,28.92,SSE,158,8.1,8.1,94,0.00,CLR,,0.00,WeatherDisplay:10.37,2013-02-12 07:47:00,
2013-02-12 01:53:00,18.9,17.4,28.92,SSE,158,9.2,9.2,94,0.00,CLR,,0.00,WeatherDisplay:10.37,2013-02-12 07:53:00,
2013-02-12 01:58:00,18.9,17.4,28.91,South,180,6.9,6.9,94,0.00,CLR,,0.00,WeatherDisplay:10.37,2013-02-12 07:58:00,
2013-02-12 02:03:00,18.9,17.4,28.91,South,180,5.8,5.8,94,0.00,CLR,,0.00,WeatherDisplay:10.37,2013-02-12 08:03:00,
2013-02-12 02:08:00,18.9,17.2,28.91,South,180,8.1,8.1,93,0.00,CLR,,0.00,WeatherDisplay:10.37,2013-02-12 08:08:00,
2013-02-12 02:13:00,18.9,17.2,28.91,South,180,5.8,5.8,93,0.00,CLR,,0.00,WeatherDisplay:10.37,2013-02-12 08:13:00,
2013-02-12 02:18:00,18.9,17.2,28.91,SSE,158,6.9,6.9,93,0.00,CLR,,0.00,WeatherDisplay:10.37,2013-02-12 08:18:00,
2013-02-12 02:24:00,19.0,17.4,28.91,SSE,158,5.8,5.8,93,0.00,CLR,,0.00,WeatherDisplay:10.37,2013-02-12 08:24:00,
2013-02-12 02:29:00,19.0,17.1,28.91,SE,135,8.1,8.1,92,0.00,CLR,,0.00,WeatherDisplay:10.37,2013-02-12 08:29:00,
2013-02-12 02:34:00,19.2,17.5,28.90,SSE,158,8.1,8.1,93,0.00,CLR,,0.00,WeatherDisplay:10.37,2013-02-12 08:34:00,
2013-02-12 02:39:00,19.2,17.3,28.90,South,180,8.1,8.1,92,0.00,CLR,,0.00,WeatherDisplay:10.37,2013-02-12 08:39:00,
2013-02-12 02:44:00,19.0,17.1,28.90,SE,135,6.9,6.9,92,0.00,CLR,,0.00,WeatherDisplay:10.37,2013-02-12 08:44:00,
2013-02-12 02:50:00,18.7,16.7,28.90,South,180,5.8,5.8,92,0.00,CLR,,0.00,WeatherDisplay:10.37,2013-02-12 08:50:00,
2013-02-12 02:55:00,18.1,16.0,28.90,South,180,4.6,4.6,91,0.00,CLR,,0.00,WeatherDisplay:10.37,2013-02-12 08:55:00,
2013-02-12 03:00:00,18.0,16.0,28.90,South,180,5.8,5.8,92,0.00,CLR,,0.00,WeatherDisplay:10.37,2013-02-12 09:00:00,
2013-02-12 03:05:00,18.0,16.0,28.89,South,180,5.8,5.8,92,0.00,CLR,,0.00,WeatherDisplay:10.37,2013-02-12 09:05:00,
2013-02-12 03:11:00,18.1,16.5,28.89,SE,135,5.8,5.8,93,0.00,CLR,,0.00,WeatherDisplay:10.37,2013-02-12 09:11:00,
2013-02-12 03:17:00,18.3,16.6,28.88,SE,135,4.6,4.6,93,0.00,CLR,,0.00,WeatherDisplay:10.37,2013-02-12 09:17:00,
2013-02-12 03:22:00,18.7,17.0,28.88,South,180,6.9,6.9,93,0.00,CLR,,0.00,WeatherDisplay:10.37,2013-02-12 09:22:00,
2013-02-12 03:28:00,18.5,16.8,28.88,SSE,158,6.9,6.9,93,0.00,CLR,,0.00,WeatherDisplay:10.37,2013-02-12 09:28:00,
2013-02-12 03:33:00,18.3,16.4,28.87,South,180,8.1,8.1,92,0.00,CLR,,0.00,WeatherDisplay:10.37,2013-02-12 09:33:00,
2013-02-12 03:38:00,18.1,16.5,28.87,SE,135,6.9,6.9,93,0.00,CLR,,0.00,WeatherDisplay:10.37,2013-02-12 09:38:00,
2013-02-12 03:43:00,18.3,16.6,28.87,SSE,158,8.1,8.1,93,0.00,CLR,,0.00,WeatherDisplay:10.37,2013-02-12 09:43:00,
2013-02-12 03:49:00,18.7,17.0,28.87,SSE,158,8.1,8.1,93,0.00,CLR,,0.00,WeatherDisplay:10.37,2013-02-12 09:49:00,
2013-02-12 03:54:00,18.5,16.6,28.86,South,180,9.2,9.2,92,0.00,CLR,,0.00,WeatherDisplay:10.37,2013-02-12 09:54:00,
2013-02-12 03:59:00,18.1,16.2,28.86,South,180,8.1,8.1,92,0.00,CLR,,0.00,WeatherDisplay:10.37,2013-02-12 09:59:00,
2013-02-12 04:04:00,18.1,16.2,28.86,South,180,8.1,8.1,92,0.00,CLR,,0.00,WeatherDisplay:10.37,2013-02-12 10:04:00,
2013-02-12 04:10:00,18.7,17.0,28.85,South,180,8.1,8.1,93,0.00,CLR,,0.00,WeatherDisplay:10.37,2013-02-12 10:10:00,
2013-02-12 04:15:00,18.9,16.9,28.85,SSE,158,7.0,10.0,92,0.00,CLR,,0.00,WeatherDisplay:10.37,2013-02-12 10:15:00,
2013-02-12 04:20:00,18.5,16.6,28.85,South,180,9.2,9.2,92,0.00,CLR,,0.00,WeatherDisplay:10.37,2013-02-12 10:20:00,
2013-02-12 04:25:00,18.3,16.4,28.85,SE,135,10.4,10.4,92,0.00,CLR,,0.00,WeatherDisplay:10.37,2013-02-12 10:25:00,
2013-02-12 04:30:00,18.3,16.4,28.84,SSE,158,8.1,8.1,92,0.00,CLR,,0.00,WeatherDisplay:10.37,2013-02-12 10:30:00,
2013-02-12 04:35:00,18.1,16.2,28.84,SSE,158,8.1,8.1,92,0.00,CLR,,0.00,WeatherDisplay:10.37,2013-02-12 10:35:00,
2013-02-12 04:41:00,18.1,16.2,28.84,South,180,8.1,8.1,92,0.00,CLR,,0.00,WeatherDisplay:10.37,2013-02-12 10:41:00,
2013-02-12 04:46:00,17.8,15.9,28.84,South,180,8.1,8.1,92,0.01,RA,,0.01,WeatherDisplay:10.37,2013-02-12 10:46:00,
2013-02-12 04:51:00,17.6,15.7,28.84,South,180,8.1,8.1,92,0.01,RA,,0.01,WeatherDisplay:10.37,2013-02-12 10:51:00,
2013-02-12 04:56:00,17.2,15.3,28.84,South,180,8.1,8.1,92,0.01,CLR,,0.01,WeatherDisplay:10.37,2013-02-12 10:56:00,
2013-02-12 05:01:00,17.1,15.1,28.85,South,180,8.1,8.1,92,0.01,CLR,,0.01,WeatherDisplay:10.37,2013-02-12 11:01:00,
2013-02-12 05:07:00,17.1,15.1,28.85,South,180,8.1,8.1,92,0.01,CLR,,0.01,WeatherDisplay:10.37,2013-02-12 11:07:00,
2013-02-12 05:12:00,16.9,15.2,28.85,SE,135,5.8,5.8,93,0.01,CLR,,0.01,WeatherDisplay:10.37,2013-02-12 11:12:00,
2013-02-12 05:17:00,16.9,15.2,28.84,South,180,5.8,5.8,93,0.01,CLR,,0.01,WeatherDisplay:10.37,2013-02-12 11:17:00,
2013-02-12 05:22:00,16.7,15.0,28.84,South,180,6.0,6.0,93,0.01,CLR,,0.01,WeatherDisplay:10.37,2013-02-12 11:22:00,
2013-02-12 05:27:00,16.7,15.0,28.84,South,180,5.8,5.8,93,0.01,CLR,,0.01,WeatherDisplay:10.37,2013-02-12 11:27:00,
2013-02-12 05:33:00,16.5,14.9,28.84,SE,135,5.8,5.8,93,0.01,CLR,,0.01,WeatherDisplay:10.37,2013-02-12 11:33:00,
2013-02-12 05:38:00,16.5,14.9,28.84,South,180,5.8,5.8,93,0.01,CLR,,0.01,WeatherDisplay:10.37,2013-02-12 11:38:00,
2013-02-12 05:43:00,16.5,14.9,28.85,South,180,5.8,5.8,93,0.01,CLR,,0.01,WeatherDisplay:10.37,2013-02-12 11:43:00,
2013-02-12 05:48:00,16.7,15.0,28.84,South,180,6.9,6.9,93,0.00,CLR,,0.01,WeatherDisplay:10.37,2013-02-12 11:48:00,
2013-02-12 05:53:00,16.7,15.0,28.84,South,180,6.9,6.9,93,0.00,CLR,,0.01,WeatherDisplay:10.37,2013-02-12 11:53:00,
2013-02-12 05:59:00,16.5,14.9,28.84,SE,135,8.3,8.3,93,0.00,CLR,,0.01,WeatherDisplay:10.37,2013-02-12 11:59:00,
2013-02-12 06:04:00,16.5,14.9,28.84,South,180,6.9,6.9,93,0.00,CLR,,0.01,WeatherDisplay:10.37,2013-02-12 12:04:00,
2013-02-12 06:09:00,16.7,15.0,28.84,South,180,8.1,8.1,93,0.00,CLR,,0.01,WeatherDisplay:10.37,2013-02-12 12:09:00,
2013-02-12 06:14:00,16.9,15.2,28.84,SE,135,8.1,8.1,93,0.00,CLR,,0.01,WeatherDisplay:10.37,2013-02-12 12:14:00,
2013-02-12 06:19:00,17.1,15.4,28.84,SE,135,8.1,8.1,93,0.00,CLR,,0.01,WeatherDisplay:10.37,2013-02-12 12:19:00,
2013-02-12 06:25:00,17.4,15.7,28.83,SE,135,8.1,8.1,93,0.00,CLR,,0.01,WeatherDisplay:10.37,2013-02-12 12:25:00,
2013-02-12 06:30:00,17.4,15.5,28.83,SE,135,8.1,8.1,92,0.00,CLR,,0.01,WeatherDisplay:10.37,2013-02-12 12:30:00,
2013-02-12 06:35:00,17.6,15.7,28.83,SE,135,9.2,9.2,92,0.00,CLR,,0.01,WeatherDisplay:10.37,2013-02-12 12:35:00,
2013-02-12 06:40:00,17.6,15.7,28.83,SE,135,8.1,8.1,92,0.00,CLR,,0.01,WeatherDisplay:10.37,2013-02-12 12:40:00,
2013-02-12 06:46:00,17.4,15.5,28.83,SE,135,9.2,9.2,92,0.00,CLR,,0.01,WeatherDisplay:10.37,2013-02-12 12:46:00,
2013-02-12 06:51:00,17.6,15.7,28.83,SE,135,9.2,9.2,92,0.00,CLR,,0.01,WeatherDisplay:10.37,2013-02-12 12:51:00,
2013-02-12 06:56:00,17.6,15.7,28.83,South,180,9.2,9.2,92,0.00,CLR,,0.01,WeatherDisplay:10.37,2013-02-12 12:56:00,
2013-02-12 07:01:00,17.6,15.7,28.83,SE,135,10.4,10.4,92,0.00,CLR,,0.01,WeatherDisplay:10.37,2013-02-12 13:01:00,
2013-02-12 07:06:00,17.6,15.7,28.82,SE,135,10.4,10.4,92,0.00,CLR,,0.01,WeatherDisplay:10.37,2013-02-12 13:06:00,
2013-02-12 07:12:00,18.0,15.8,28.83,South,180,9.2,9.2,91,0.00,CLR,,0.01,WeatherDisplay:10.37,2013-02-12 13:12:00,
2013-02-12 07:17:00,18.0,15.8,28.82,South,180,10.4,10.4,91,0.00,CLR,,0.01,WeatherDisplay:10.37,2013-02-12 13:17:00,
2013-02-12 07:22:00,18.1,15.7,28.82,South,180,8.1,8.1,90,0.00,CLR,,0.01,WeatherDisplay:10.37,2013-02-12 13:22:00,
2013-02-12 07:27:00,18.1,15.7,28.82,South,180,8.1,8.1,90,0.00,CLR,,0.01,WeatherDisplay:10.37,2013-02-12 13:27:00,
2013-02-12 07:32:00,18.1,15.7,28.82,South,180,8.1,8.1,90,0.00,CLR,,0.01,WeatherDisplay:10.37,2013-02-12 13:32:00,
2013-02-12 07:38:00,18.1,15.7,28.82,SE,135,6.9,6.9,90,0.00,CLR,,0.01,WeatherDisplay:10.37,2013-02-12 13:38:00,
2013-02-12 07:43:00,18.9,16.4,28.83,SE,135,5.8,5.8,90,0.00,CLR,,0.01,WeatherDisplay:10.37,2013-02-12 13:43:00,
2013-02-12 07:48:00,19.2,16.5,28.82,South,180,5.8,5.8,89,0.00,CLR,,0.01,WeatherDisplay:10.37,2013-02-12 13:48:00,
2013-02-12 07:53:00,19.9,17.0,28.82,SE,135,5.8,5.8,88,0.00,CLR,,0.01,WeatherDisplay:10.37,2013-02-12 13:53:00,
2013-02-12 07:58:00,21.0,18.0,28.83,North,0,3.5,3.5,88,0.00,CLR,,0.01,WeatherDisplay:10.37,2013-02-12 13:58:00,
2013-02-12 08:04:00,22.6,19.6,28.84,SE,135,1.2,0.0,88,0.00,CLR,,0.01,WeatherDisplay:10.37,2013-02-12 14:04:00,
2013-02-12 08:09:00,24.3,21.8,28.83,NW,315,1.2,0.0,90,0.00,CLR,,0.01,WeatherDisplay:10.37,2013-02-12 14:09:00,
2013-02-12 08:13:00,25.5,22.7,28.83,South,180,1.2,1.6,89,0.00,CLR,,0.01,WeatherDisplay:10.37,2013-02-12 14:13:00,
2013-02-12 08:19:00,25.5,21.6,28.83,SW,225,5.8,5.8,85,0.00,CLR,,0.01,WeatherDisplay:10.37,2013-02-12 14:19:00,
2013-02-12 08:24:00,25.5,20.8,28.83,East,90,5.8,5.8,82,0.00,CLR,,0.01,WeatherDisplay:10.37,2013-02-12 14:24:00,
2013-02-12 08:29:00,26.1,21.0,28.83,SE,135,3.5,3.5,81,0.00,CLR,,0.01,WeatherDisplay:10.37,2013-02-12 14:29:00,
2013-02-12 08:34:00,26.4,21.1,28.83,East,90,3.5,3.5,80,0.00,CLR,,0.01,WeatherDisplay:10.37,2013-02-12 14:34:00,
2013-02-12 08:39:00,26.6,21.0,28.83,SE,135,3.5,3.5,79,0.00,CLR,,0.01,WeatherDisplay:10.37,2013-02-12 14:39:00,
2013-02-12 08:44:00,27.5,21.5,28.83,SE,135,3.5,3.5,78,0.00,CLR,,0.01,WeatherDisplay:10.37,2013-02-12 14:44:00,
2013-02-12 08:49:00,28.9,22.6,28.82,South,180,2.3,2.3,77,0.00,CLR,,0.01,WeatherDisplay:10.37,2013-02-12 14:49:00,
2013-02-12 08:55:00,30.0,23.1,28.82,SW,225,3.5,3.5,75,0.00,CLR,,0.01,WeatherDisplay:10.37,2013-02-12 14:55:00,
2013-02-12 09:00:00,31.1,24.7,28.82,SW,225,1.2,0.0,77,0.00,CLR,,0.01,WeatherDisplay:10.37,2013-02-12 15:00:00,
2013-02-12 09:05:00,31.1,24.7,28.82,SW,225,1.2,0.0,77,0.00,CLR,,0.01,WeatherDisplay:10.37,2013-02-12 15:05:00,
2013-02-12 09:10:00,31.6,24.3,28.81,NW,315,3.5,3.5,74,0.00,CLR,,0.01,WeatherDisplay:10.37,2013-02-12 15:10:00,
2013-02-12 09:16:00,32.4,24.7,28.81,NE,45,4.6,4.6,73,0.00,CLR,,0.01,WeatherDisplay:10.37,2013-02-12 15:16:00,
2013-02-12 09:21:00,33.4,25.0,28.81,SW,225,3.5,3.5,71,0.00,CLR,,0.01,WeatherDisplay:10.37,2013-02-12 15:21:00,
2013-02-12 09:26:00,33.8,25.7,28.81,NW,315,4.6,4.6,72,0.00,CLR,,0.01,WeatherDisplay:10.37,2013-02-12 15:26:00,
2013-02-12 09:31:00,32.9,23.1,28.81,NW,315,4.6,4.6,67,0.00,CLR,,0.01,WeatherDisplay:10.37,2013-02-12 15:31:00,
2013-02-12 09:36:00,33.4,23.7,28.81,SW,225,3.5,3.5,67,0.00,CLR,,0.01,WeatherDisplay:10.37,2013-02-12 15:36:00,
2013-02-12 09:41:00,34.0,24.2,28.80,NW,315,6.9,6.9,67,0.00,CLR,,0.01,WeatherDisplay:10.37,2013-02-12 15:41:00,
2013-02-12 09:47:00,34.0,23.8,28.81,NW,315,3.5,3.5,66,0.00,CLR,,0.01,WeatherDisplay:10.37,2013-02-12 15:47:00,
2013-02-12 09:52:00,34.5,24.3,28.81,NW,315,3.5,3.5,66,0.00,CLR,,0.01,WeatherDisplay:10.37,2013-02-12 15:52:00,
2013-02-12 09:57:00,34.9,24.7,28.81,NW,315,4.6,4.6,66,0.00,CLR,,0.01,WeatherDisplay:10.37,2013-02-12 15:57:00,
2013-02-12 10:02:00,34.9,23.6,28.81,West,270,5.8,5.8,63,0.00,CLR,,0.01,WeatherDisplay:10.37,2013-02-12 16:02:00,
2013-02-12 10:07:00,35.1,23.7,28.81,NW,315,5.8,5.8,63,0.00,CLR,,0.01,WeatherDisplay:10.37,2013-02-12 16:07:00,
2013-02-12 10:13:00,35.1,23.7,28.81,West,270,5.8,5.8,63,0.00,CLR,,0.01,WeatherDisplay:10.37,2013-02-12 16:13:00,
2013-02-12 10:18:00,34.9,23.2,28.80,West,270,6.9,6.9,62,0.00,CLR,,0.01,WeatherDisplay:10.37,2013-02-12 16:18:00,
2013-02-12 10:23:00,34.9,23.2,28.80,North,0,6.9,6.9,62,0.00,CLR,,0.01,WeatherDisplay:10.37,2013-02-12 16:23:00,
2013-02-12 10:28:00,35.2,23.1,28.80,NW,315,4.6,4.6,61,0.00,CLR,,0.01,WeatherDisplay:10.37,2013-02-12 16:28:00,
2013-02-12 10:33:00,35.6,24.6,28.80,NW,315,4.6,4.6,64,0.00,CLR,,0.01,WeatherDisplay:10.37,2013-02-12 16:33:00,
2013-02-12 10:38:00,36.3,24.5,28.80,West,270,5.8,5.8,62,0.00,CLR,,0.01,WeatherDisplay:10.37,2013-02-12 16:38:00,
2013-02-12 10:44:00,37.2,25.0,28.80,NW,315,4.6,4.6,61,0.00,CLR,,0.01,WeatherDisplay:10.37,2013-02-12 16:44:00,
2013-02-12 10:49:00,37.0,24.0,28.80,NW,315,4.6,4.6,59,0.00,CLR,,0.01,WeatherDisplay:10.37,2013-02-12 16:49:00,
2013-02-12 10:54:00,37.0,23.6,28.80,SW,225,8.1,8.1,58,0.00,CLR,,0.01,WeatherDisplay:10.37,2013-02-12 16:54:00,
2013-02-12 10:59:00,36.9,24.3,28.80,NW,315,5.8,5.8,60,0.00,CLR,,0.01,WeatherDisplay:10.37,2013-02-12 16:59:00,
2013-02-12 11:05:00,37.2,22.9,28.80,NW,315,3.5,3.5,56,0.00,CLR,,0.01,WeatherDisplay:10.37,2013-02-12 17:05:00,
2013-02-12 11:10:00,37.8,23.9,28.80,NW,315,6.9,6.9,57,0.00,CLR,,0.01,WeatherDisplay:10.37,2013-02-12 17:10:00,
2013-02-12 11:15:00,37.6,24.1,28.79,WNW,292,5.8,5.8,58,0.00,CLR,,0.01,WeatherDisplay:10.37,2013-02-12 17:15:00,
2013-02-12 11:20:00,37.8,24.3,28.79,NW,315,3.5,3.5,58,0.00,CLR,,0.01,WeatherDisplay:10.37,2013-02-12 17:20:00,
2013-02-12 11:26:00,38.5,24.1,28.79,West,270,4.6,4.6,56,0.00,CLR,,0.01,WeatherDisplay:10.37,2013-02-12 17:26:00,
2013-02-12 11:31:00,39.0,24.6,28.80,South,180,3.5,3.5,56,0.00,CLR,,0.01,WeatherDisplay:10.37,2013-02-12 17:31:00,
2013-02-12 11:36:00,39.0,24.6,28.80,NW,315,3.8,3.8,56,0.00,CLR,,0.01,WeatherDisplay:10.37,2013-02-12 17:36:00,
2013-02-12 11:41:00,39.0,23.8,28.80,NW,315,4.6,4.6,54,0.00,CLR,,0.01,WeatherDisplay:10.37,2013-02-12 17:41:00,
2013-02-12 11:47:00,39.4,24.1,28.79,West,270,4.6,4.6,54,0.00,CLR,,0.01,WeatherDisplay:10.37,2013-02-12 17:47:00,
2013-02-12 11:52:00,40.3,24.9,28.78,NW,315,6.9,6.9,54,0.00,CLR,,0.01,WeatherDisplay:10.37,2013-02-12 17:52:00,
2013-02-12 11:57:00,40.3,24.5,28.79,NW,315,5.8,5.8,53,0.00,CLR,,0.01,WeatherDisplay:10.37,2013-02-12 17:57:00,
2013-02-12 12:02:00,40.1,24.3,28.78,NW,315,3.5,3.5,53,0.00,CLR,,0.01,WeatherDisplay:10.37,2013-02-12 18:02:00,
2013-02-12 12:08:00,39.9,24.6,28.78,NW,315,5.8,5.8,54,0.00,CLR,,0.01,WeatherDisplay:10.37,2013-02-12 18:08:00,
2013-02-12 12:13:00,39.9,25.5,28.78,North,0,6.9,6.9,56,0.00,CLR,,0.01,WeatherDisplay:10.37,2013-02-12 18:13:00,
2013-02-12 12:18:00,40.1,26.5,28.79,NW,315,6.9,6.9,58,0.00,CLR,,0.01,WeatherDisplay:10.37,2013-02-12 18:18:00,
2013-02-12 12:23:00,40.6,26.2,28.78,NW,315,3.5,3.5,56,0.00,CLR,,0.01,WeatherDisplay:10.37,2013-02-12 18:23:00,
2013-02-12 12:28:00,40.1,23.9,28.78,NW,315,5.8,5.8,52,0.00,CLR,,0.01,WeatherDisplay:10.37,2013-02-12 18:28:00,
2013-02-12 12:34:00,40.8,26.7,28.78,SW,225,5.8,5.8,57,0.00,CLR,,0.01,WeatherDisplay:10.37,2013-02-12 18:34:00,
2013-02-12 12:39:00,40.8,26.3,28.78,NNW,338,4.6,4.6,56,0.00,CLR,,0.01,WeatherDisplay:10.37,2013-02-12 18:39:00,
2013-02-12 12:44:00,40.8,26.3,28.78,NW,315,6.9,6.9,56,0.00,CLR,,0.01,WeatherDisplay:10.37,2013-02-12 18:44:00,
2013-02-12 12:49:00,41.0,26.9,28.78,NW,315,5.8,5.8,57,0.00,CLR,,0.01,WeatherDisplay:10.37,2013-02-12 18:49:00,
2013-02-12 12:54:00,40.8,25.0,28.78,NW,315,5.8,5.8,53,0.00,CLR,,0.01,WeatherDisplay:10.37,2013-02-12 18:54:00,
2013-02-12 12:59:00,41.2,26.7,28.78,NW,315,4.6,4.6,56,0.00,CLR,,0.01,WeatherDisplay:10.37,2013-02-12 18:59:00,
2013-02-12 13:05:00,41.4,27.7,28.78,NW,315,5.8,5.8,58,0.00,CLR,,0.01,WeatherDisplay:10.37,2013-02-12 19:05:00,
2013-02-12 13:10:00,41.5,26.6,28.78,North,0,5.8,5.8,55,0.00,CLR,,0.01,WeatherDisplay:10.37,2013-02-12 19:10:00,
2013-02-12 13:15:00,41.9,26.4,28.78,NW,315,4.6,4.6,54,0.00,CLR,,0.01,WeatherDisplay:10.37,2013-02-12 19:15:00,
2013-02-12 13:20:00,41.7,28.0,28.78,West,270,5.8,5.8,58,0.00,CLR,,0.01,WeatherDisplay:10.37,2013-02-12 19:20:00,
2013-02-12 13:25:00,41.9,26.4,28.77,NW,315,5.8,5.8,54,0.00,CLR,,0.01,WeatherDisplay:10.37,2013-02-12 19:25:00,
2013-02-12 13:31:00,42.4,27.4,28.76,West,270,8.1,8.1,55,0.00,CLR,,0.01,WeatherDisplay:10.37,2013-02-12 19:31:00,
2013-02-12 13:36:00,42.3,26.3,28.76,NW,315,5.8,5.8,53,0.00,CLR,,0.01,WeatherDisplay:10.37,2013-02-12 19:36:00,
2013-02-12 13:41:00,42.4,26.5,28.76,WNW,292,5.8,5.8,53,0.00,CLR,,0.01,WeatherDisplay:10.37,2013-02-12 19:41:00,
2013-02-12 13:46:00,42.4,25.1,28.76,West,270,6.9,6.9,50,0.00,CLR,,0.01,WeatherDisplay:10.37,2013-02-12 19:46:00,
2013-02-12 13:51:00,42.8,27.7,28.76,NW,315,6.9,6.9,55,0.00,CLR,,0.01,WeatherDisplay:10.37,2013-02-12 19:51:00,
2013-02-12 13:56:00,42.6,26.2,28.76,NW,315,5.8,5.8,52,0.00,CLR,,0.01,WeatherDisplay:10.37,2013-02-12 19:56:00,
2013-02-12 14:01:00,42.8,25.9,28.75,West,270,6.9,6.9,51,0.00,CLR,,0.01,WeatherDisplay:10.37,2013-02-12 20:01:00,
2013-02-12 14:07:00,42.8,26.4,28.76,West,270,6.9,6.9,52,0.00,CLR,,0.01,WeatherDisplay:10.37,2013-02-12 20:07:00,
2013-02-12 14:12:00,43.3,28.2,28.76,NW,315,5.8,5.8,55,0.00,CLR,,0.01,WeatherDisplay:10.37,2013-02-12 20:12:00,
2013-02-12 14:17:00,43.7,27.2,28.75,West,270,5.8,5.8,52,0.00,CLR,,0.01,WeatherDisplay:10.37,2013-02-12 20:17:00,
2013-02-12 14:22:00,43.5,27.0,28.75,North,0,5.8,5.8,52,0.00,CLR,,0.01,WeatherDisplay:10.37,2013-02-12 20:22:00,
2013-02-12 14:27:00,44.1,27.1,28.74,NW,315,6.0,6.0,51,0.00,CLR,,0.01,WeatherDisplay:10.37,2013-02-12 20:27:00,
2013-02-12 14:32:00,43.9,26.9,28.74,NW,315,5.8,5.8,51,0.00,CLR,,0.01,WeatherDisplay:10.37,2013-02-12 20:32:00,
2013-02-12 14:38:00,44.1,28.0,28.74,NW,315,5.8,5.8,53,0.00,CLR,,0.01,WeatherDisplay:10.37,2013-02-12 20:38:00,
2013-02-12 14:43:00,44.2,28.2,28.74,North,0,6.9,6.9,53,0.00,CLR,,0.01,WeatherDisplay:10.37,2013-02-12 20:43:00,
2013-02-12 14:48:00,44.1,28.5,28.74,NW,315,5.8,5.8,54,0.00,CLR,,0.01,WeatherDisplay:10.37,2013-02-12 20:48:00,
2013-02-12 14:53:00,44.2,27.2,28.74,NW,315,6.9,6.9,51,0.00,CLR,,0.01,WeatherDisplay:10.37,2013-02-12 20:53:00,
2013-02-12 14:58:00,44.2,28.2,28.74,NW,315,5.8,5.8,53,0.00,CLR,,0.01,WeatherDisplay:10.37,2013-02-12 20:58:00,
2013-02-12 15:03:00,44.1,27.1,28.74,West,270,6.9,6.9,51,0.00,CLR,,0.01,WeatherDisplay:10.37,2013-02-12 21:03:00,
2013-02-12 15:09:00,44.4,27.9,28.74,NW,315,4.6,4.6,52,0.00,CLR,,0.01,WeatherDisplay:10.37,2013-02-12 21:09:00,
2013-02-12 15:14:00,44.2,28.2,28.74,North,0,4.6,4.6,53,0.00,CLR,,0.01,WeatherDisplay:10.37,2013-02-12 21:14:00,
2013-02-12 15:19:00,44.1,27.1,28.74,WNW,292,5.8,5.8,51,0.00,CLR,,0.01,WeatherDisplay:10.37,2013-02-12 21:19:00,
2013-02-12 15:24:00,44.6,28.5,28.73,NW,315,5.8,5.8,53,0.00,CLR,,0.01,WeatherDisplay:10.37,2013-02-12 21:24:00,
2013-02-12 15:29:00,44.8,29.1,28.73,NW,315,4.6,4.6,54,0.00,CLR,,0.01,WeatherDisplay:10.37,2013-02-12 21:29:00,
2013-02-12 15:35:00,44.8,27.7,28.74,NW,315,4.6,4.6,51,0.00,CLR,,0.01,WeatherDisplay:10.37,2013-02-12 21:35:00,
2013-02-12 15:40:00,44.6,28.0,28.74,West,270,4.6,4.6,52,0.00,CLR,,0.01,WeatherDisplay:10.37,2013-02-12 21:40:00,
2013-02-12 15:45:00,44.2,28.2,28.74,NW,315,5.8,5.8,53,0.00,CLR,,0.01,WeatherDisplay:10.37,2013-02-12 21:45:00,
2013-02-12 15:50:00,44.4,28.3,28.74,SW,225,4.6,4.6,53,0.00,CLR,,0.01,WeatherDisplay:10.37,2013-02-12 21:50:00,
2013-02-12 15:55:00,44.2,27.7,28.74,NW,315,5.8,5.8,52,0.00,CLR,,0.01,WeatherDisplay:10.37,2013-02-12 21:55:00,
2013-02-12 16:00:00,43.7,27.2,28.74,NW,315,5.8,5.8,52,0.00,CLR,,0.01,WeatherDisplay:10.37,2013-02-12 22:00:00,
2013-02-12 16:06:00,43.5,27.5,28.74,NW,315,6.9,6.9,53,0.00,CLR,,0.01,WeatherDisplay:10.37,2013-02-12 22:06:00,
2013-02-12 16:11:00,43.5,28.0,28.74,North,0,5.8,5.8,54,0.00,CLR,,0.01,WeatherDisplay:10.37,2013-02-12 22:11:00,
2013-02-12 16:16:00,43.0,28.3,28.74,NW,315,5.8,5.8,56,0.00,CLR,,0.01,WeatherDisplay:10.37,2013-02-12 22:16:00,
2013-02-12 16:21:00,42.8,27.7,28.74,NW,315,6.9,6.9,55,0.00,CLR,,0.01,WeatherDisplay:10.37,2013-02-12 22:21:00,
2013-02-12 16:27:00,42.1,28.8,28.74,NW,315,5.8,5.8,59,0.00,CLR,,0.01,WeatherDisplay:10.37,2013-02-12 22:27:00,
2013-02-12 16:32:00,41.7,28.4,28.74,NW,315,5.8,5.8,59,0.00,CLR,,0.01,WeatherDisplay:10.37,2013-02-12 22:32:00,
2013-02-12 16:37:00,41.4,28.5,28.74,West,270,5.8,5.8,60,0.00,CLR,,0.01,WeatherDisplay:10.37,2013-02-12 22:37:00,
2013-02-12 16:42:00,40.6,28.6,28.74,NW,315,6.9,6.9,62,0.00,CLR,,0.01,WeatherDisplay:10.37,2013-02-12 22:42:00,
2013-02-12 16:47:00,39.7,28.5,28.74,NW,315,6.9,6.9,64,0.00,CLR,,0.01,WeatherDisplay:10.37,2013-02-12 22:47:00,
2013-02-12 16:52:00,39.6,28.8,28.73,NW,315,5.8,5.8,65,0.00,CLR,,0.01,WeatherDisplay:10.37,2013-02-12 22:52:00,
2013-02-12 16:58:00,38.3,27.9,28.73,NW,315,8.1,8.1,66,0.00,CLR,,0.01,WeatherDisplay:10.37,2013-02-12 22:58:00,
2013-02-12 17:03:00,38.3,28.3,28.73,NW,315,6.0,6.0,67,0.00,CLR,,0.01,WeatherDisplay:10.37,2013-02-12 23:03:00,
2013-02-12 17:08:00,37.4,28.5,28.73,West,270,5.8,5.8,70,0.00,CLR,,0.01,WeatherDisplay:10.37,2013-02-12 23:08:00,
2013-02-12 17:13:00,37.2,28.7,28.73,NW,315,5.8,5.8,71,0.00,CLR,,0.01,WeatherDisplay:10.37,2013-02-12 23:13:00,
2013-02-12 17:19:00,36.9,29.0,28.74,NW,315,5.8,5.8,73,0.00,CLR,,0.01,WeatherDisplay:10.37,2013-02-12 23:19:00,
2013-02-12 17:24:00,36.5,29.0,28.73,NW,315,4.6,4.6,74,0.00,CLR,,0.01,WeatherDisplay:10.37,2013-02-12 23:24:00,
2013-02-12 17:29:00,36.1,28.6,28.73,NW,315,4.6,4.6,74,0.00,CLR,,0.01,WeatherDisplay:10.37,2013-02-12 23:29:00,
2013-02-12 17:34:00,35.6,28.5,28.74,NW,315,5.8,5.8,75,0.00,CLR,,0.01,WeatherDisplay:10.37,2013-02-12 23:34:00,
2013-02-12 17:39:00,34.5,28.4,28.74,NW,315,5.8,5.8,78,0.00,CLR,,0.01,WeatherDisplay:10.37,2013-02-12 23:39:00,
2013-02-12 17:45:00,34.2,28.4,28.74,NW,315,3.0,6.0,79,0.00,CLR,,0.01,WeatherDisplay:10.37,2013-02-12 23:45:00,
2013-02-12 17:50:00,33.8,28.0,28.74,NW,315,5.8,5.8,79,0.00,CLR,,0.01,WeatherDisplay:10.37,2013-02-12 23:50:00,
2013-02-12 17:55:00,33.4,27.9,28.74,NW,315,4.6,4.6,80,0.00,CLR,,0.01,WeatherDisplay:10.37,2013-02-12 23:55:00,
2013-02-12 18:00:00,33.3,28.1,28.74,NW,315,4.6,4.6,81,0.00,CLR,,0.01,WeatherDisplay:10.37,2013-02-13 00:00:00,
2013-02-12 18:05:00,33.3,28.1,28.74,NW,315,4.6,4.6,81,0.00,CLR,,0.01,WeatherDisplay:10.37,2013-02-13 00:05:00,
2013-02-12 18:10:00,32.9,28.3,28.74,NW,315,5.8,5.8,83,0.00,CLR,,0.01,WeatherDisplay:10.37,2013-02-13 00:10:00,
2013-02-12 18:15:00,32.7,28.4,28.74,North,0,5.8,5.8,84,0.00,CLR,,0.01,WeatherDisplay:10.37,2013-02-13 00:15:00,
2013-02-12 18:21:00,32.5,28.2,28.74,NW,315,5.8,5.8,84,0.00,CLR,,0.01,WeatherDisplay:10.37,2013-02-13 00:21:00,
2013-02-12 18:26:00,32.4,28.1,28.74,North,0,4.6,4.6,84,0.00,CLR,,0.01,WeatherDisplay:10.37,2013-02-13 00:26:00,
2013-02-12 18:31:00,32.4,28.1,28.74,NW,315,5.8,5.8,84,0.00,CLR,,0.01,WeatherDisplay:10.37,2013-02-13 00:31:00,
2013-02-12 18:36:00,32.2,28.2,28.74,North,0,5.8,5.8,85,0.00,CLR,,0.01,WeatherDisplay:10.37,2013-02-13 00:36:00,
2013-02-12 18:41:00,32.0,28.0,28.74,North,0,4.6,4.6,85,0.00,CLR,,0.01,WeatherDisplay:10.37,2013-02-13 00:41:00,
2013-02-12 18:47:00,31.8,27.8,28.74,North,0,4.6,4.6,85,0.00,CLR,,0.01,WeatherDisplay:10.37,2013-02-13 00:47:00,
2013-02-12 18:52:00,31.8,28.1,28.74,NW,315,3.5,3.5,86,0.00,CLR,,0.01,WeatherDisplay:10.37,2013-02-13 00:52:00,
2013-02-12 18:57:00,31.5,27.8,28.74,North,0,3.5,3.5,86,0.00,CLR,,0.01,WeatherDisplay:10.37,2013-02-13 00:57:00,
2013-02-12 19:02:00,31.5,27.8,28.74,North,0,3.5,3.5,86,0.00,CLR,,0.01,WeatherDisplay:10.37,2013-02-13 01:02:00,
2013-02-12 19:07:00,31.5,27.8,28.74,North,0,3.5,3.5,86,0.00,CLR,,0.01,WeatherDisplay:10.37,2013-02-13 01:07:00,
2013-02-12 19:12:00,31.3,27.6,28.74,NW,315,3.5,3.5,86,0.00,CLR,,0.01,WeatherDisplay:10.37,2013-02-13 01:12:00,
2013-02-12 19:17:00,31.3,27.6,28.74,North,0,4.6,4.6,86,0.00,CLR,,0.01,WeatherDisplay:10.37,2013-02-13 01:17:00,
2013-02-12 19:22:00,31.3,27.6,28.74,NW,315,4.6,4.6,86,0.00,CLR,,0.01,WeatherDisplay:10.37,2013-02-13 01:22:00,
2013-02-12 19:28:00,31.3,27.6,28.74,NW,315,4.6,4.6,86,0.00,CLR,,0.01,WeatherDisplay:10.37,2013-02-13 01:28:00,
2013-02-12 19:33:00,31.1,27.4,28.73,North,0,3.5,3.5,86,0.00,CLR,,0.01,WeatherDisplay:10.37,2013-02-13 01:33:00,
2013-02-12 19:38:00,31.1,27.4,28.74,North,0,3.5,3.5,86,0.00,CLR,,0.01,WeatherDisplay:10.37,2013-02-13 01:38:00,
2013-02-12 19:43:00,31.1,27.4,28.74,North,0,3.5,3.5,86,0.00,CLR,,0.01,WeatherDisplay:10.37,2013-02-13 01:43:00,
2013-02-12 19:49:00,30.9,27.2,28.73,NW,315,3.5,3.5,86,0.00,CLR,,0.01,WeatherDisplay:10.37,2013-02-13 01:49:00,
2013-02-12 19:54:00,30.7,27.0,28.74,NW,315,3.5,3.5,86,0.00,CLR,,0.01,WeatherDisplay:10.37,2013-02-13 01:54:00,
2013-02-12 19:59:00,30.6,27.2,28.74,NW,315,3.5,3.5,87,0.00,CLR,,0.01,WeatherDisplay:10.37,2013-02-13 01:59:00,
2013-02-12 20:04:00,30.2,26.8,28.74,NW,315,2.3,2.3,87,0.00,CLR,,0.01,WeatherDisplay:10.37,2013-02-13 02:04:00,
2013-02-12 20:09:00,30.0,26.9,28.74,NW,315,3.5,3.5,88,0.00,CLR,,0.01,WeatherDisplay:10.37,2013-02-13 02:09:00,
2013-02-12 20:15:00,29.8,27.0,28.74,NW,315,1.0,3.0,89,0.00,CLR,,0.01,WeatherDisplay:10.37,2013-02-13 02:15:00,
2013-02-12 20:20:00,29.8,26.7,28.73,NW,315,2.3,2.3,88,0.00,CLR,,0.01,WeatherDisplay:10.37,2013-02-13 02:20:00,
2013-02-12 20:25:00,29.5,26.9,28.74,NW,315,2.3,2.3,90,0.00,CLR,,0.01,WeatherDisplay:10.37,2013-02-13 02:25:00,
2013-02-12 20:30:00,29.3,26.7,28.74,NW,315,2.3,2.3,90,0.00,CLR,,0.01,WeatherDisplay:10.37,2013-02-13 02:30:00,
2013-02-12 20:36:00,29.1,26.6,28.73,North,0,2.3,2.3,90,0.00,CLR,,0.01,WeatherDisplay:10.37,2013-02-13 02:36:00,
2013-02-12 20:41:00,28.9,26.6,28.73,NW,315,3.5,3.5,91,0.00,CLR,,0.01,WeatherDisplay:10.37,2013-02-13 02:41:00,
2013-02-12 20:46:00,28.9,26.6,28.73,North,0,3.5,3.5,91,0.00,CLR,,0.01,WeatherDisplay:10.37,2013-02-13 02:46:00,
2013-02-12 20:52:00,28.8,26.5,28.73,NW,315,2.3,2.3,91,0.00,CLR,,0.01,WeatherDisplay:10.37,2013-02-13 02:52:00,
2013-02-12 20:59:00,28.6,26.3,28.73,NW,315,1.2,0.0,91,0.00,CLR,,0.01,WeatherDisplay:10.37,2013-02-13 02:59:00,
2013-02-12 21:04:00,28.4,26.1,28.73,NW,315,0.0,0.0,91,0.00,CLR,,0.01,WeatherDisplay:10.37,2013-02-13 03:04:00,
2013-02-12 21:09:00,27.9,25.6,28.72,NW,315,1.2,0.0,91,0.00,CLR,,0.01,WeatherDisplay:10.37,2013-02-13 03:09:00,
2013-02-12 21:14:00,27.9,25.8,28.72,NW,315,1.2,0.0,92,0.00,CLR,,0.01,WeatherDisplay:10.37,2013-02-13 03:14:00,
2013-02-12 21:19:00,27.9,25.8,28.72,NW,315,1.2,0.0,92,0.00,CLR,,0.01,WeatherDisplay:10.37,2013-02-13 03:19:00,
2013-02-12 21:25:00,27.5,25.2,28.72,NW,315,0.0,0.0,91,0.00,CLR,,0.01,WeatherDisplay:10.37,2013-02-13 03:25:00,
2013-02-12 21:30:00,27.0,24.7,28.72,NW,315,0.0,0.0,91,0.00,CLR,,0.01,WeatherDisplay:10.37,2013-02-13 03:30:00,
2013-02-12 21:35:00,26.6,24.3,28.72,North,0,1.2,0.0,91,0.00,CLR,,0.01,WeatherDisplay:10.37,2013-02-13 03:35:00,
2013-02-12 21:40:00,26.4,24.1,28.72,North,0,1.2,1.2,91,0.00,CLR,,0.01,WeatherDisplay:10.37,2013-02-13 03:40:00,
2013-02-12 21:46:00,26.8,24.8,28.72,North,0,1.2,1.2,92,0.00,CLR,,0.01,WeatherDisplay:10.37,2013-02-13 03:46:00,
2013-02-12 21:51:00,27.0,24.9,28.72,North,0,1.2,0.0,92,0.00,CLR,,0.01,WeatherDisplay:10.37,2013-02-13 03:51:00,
2013-02-12 21:56:00,26.8,24.8,28.72,North,0,0.0,0.0,92,0.00,CLR,,0.01,WeatherDisplay:10.37,2013-02-13 03:56:00,
2013-02-12 22:01:00,26.4,24.4,28.72,North,0,0.0,0.0,92,0.00,CLR,,0.01,WeatherDisplay:10.37,2013-02-13 04:01:00,
2013-02-12 22:06:00,26.4,24.4,28.72,North,0,0.0,0.0,92,0.00,CLR,,0.01,WeatherDisplay:10.37,2013-02-13 04:06:00,
2013-02-12 22:11:00,27.3,25.8,28.72,NW,315,2.3,2.3,94,0.00,CLR,,0.01,WeatherDisplay:10.37,2013-02-13 04:11:00,
2013-02-12 22:17:00,27.5,25.7,28.72,NW,315,1.2,0.0,93,0.00,CLR,,0.01,WeatherDisplay:10.37,2013-02-13 04:17:00,
2013-02-12 22:22:00,27.5,25.7,28.72,NW,315,1.2,0.0,93,0.00,CLR,,0.01,WeatherDisplay:10.37,2013-02-13 04:22:00,
2013-02-12 22:27:00,27.5,25.7,28.72,West,270,1.2,1.2,93,0.00,CLR,,0.01,WeatherDisplay:10.37,2013-02-13 04:27:00,
2013-02-12 22:32:00,27.5,25.5,28.72,West,270,1.2,1.2,92,0.00,CLR,,0.01,WeatherDisplay:10.37,2013-02-13 04:32:00,
2013-02-12 22:37:00,27.5,25.5,28.72,West,270,1.2,0.0,92,0.00,CLR,,0.01,WeatherDisplay:10.37,2013-02-13 04:37:00,
2013-02-12 22:43:00,27.5,25.5,28.72,West,270,1.2,0.0,92,0.00,CLR,,0.01,WeatherDisplay:10.37,2013-02-13 04:43:00,
2013-02-12 22:48:00,27.1,25.1,28.72,NW,315,1.2,0.0,92,0.00,CLR,,0.01,WeatherDisplay:10.37,2013-02-13 04:48:00,
2013-02-12 22:53:00,27.1,25.4,28.72,NW,315,1.2,0.0,93,0.00,CLR,,0.01,WeatherDisplay:10.37,2013-02-13 04:53:00,
2013-02-12 22:58:00,27.0,25.2,28.72,NW,315,1.2,0.0,93,0.00,CLR,,0.01,WeatherDisplay:10.37,2013-02-13 04:58:00,
2013-02-12 23:00:00,27.0,25.2,28.72,NW,315,1.0,2.0,93,0.00,CLR,,0.01,WeatherDisplay:10.37,2013-02-13 05:00:00,
2013-02-12 23:06:00,27.0,25.2,28.71,NW,315,1.2,0.0,93,0.00,CLR,,0.01,WeatherDisplay:10.37,2013-02-13 05:06:00,
2013-02-12 23:11:00,26.6,24.8,28.72,NE,45,1.6,1.6,93,0.00,CLR,,0.01,WeatherDisplay:10.37,2013-02-13 05:11:00,
2013-02-12 23:16:00,26.2,24.5,28.72,NE,45,1.2,1.2,93,0.00,CLR,,0.01,WeatherDisplay:10.37,2013-02-13 05:16:00,
2013-02-12 23:21:00,25.9,24.1,28.71,NW,315,2.3,2.3,93,0.00,CLR,,0.01,WeatherDisplay:10.37,2013-02-13 05:21:00,
2013-02-12 23:26:00,26.1,24.6,28.71,NW,315,1.2,1.2,94,0.00,CLR,,0.01,WeatherDisplay:10.37,2013-02-13 05:26:00,
2013-02-12 23:31:00,26.2,24.7,28.71,NW,315,1.2,1.2,94,0.00,CLR,,0.01,WeatherDisplay:10.37,2013-02-13 05:31:00,
2013-02-12 23:37:00,26.2,24.7,28.71,NW,315,0.0,0.0,94,0.00,CLR,,0.01,WeatherDisplay:10.37,2013-02-13 05:37:00,
2013-02-12 23:42:00,25.9,24.4,28.71,NW,315,0.0,0.0,94,0.00,CLR,,0.01,WeatherDisplay:10.37,2013-02-13 05:42:00,
2013-02-12 23:47:00,25.7,24.2,28.71,NE,45,1.2,0.0,94,0.00,CLR,,0.01,WeatherDisplay:10.37,2013-02-13 05:47:00,
2013-02-12 23:52:00,25.5,24.0,28.72,NE,45,0.0,0.0,94,0.00,CLR,,0.01,WeatherDisplay:10.37,2013-02-13 05:52:00,
2013-02-12 23:58:00,25.2,23.7,28.72,NE,45,0.0,0.0,94,0.00,CLR,,0.01,WeatherDisplay:10.37,2013-02-13 05:58:00,